This demonstration page uses our WeatherBlox Daily Observations layout. Learn more.

Left ArrowRight Arrow

Hourly Observations for November 13, 2022

Temp ( °F °C ) Dew Point ( °F °C ) Humidity (%) Winds ( mph kmh ) Pressure ( in mb ) Visibility ( mi km ) Precip ( " mm )
12:53 am 00:53 Clear 23 -5 15 -9.4 71 71 SSW 3 6 30.35 1028 10 16 0.00 0.00
1:53 am 01:53 Clear 24 -4.4 16 -8.9 71 71 ESE 6 9 30.33 1027 10 16 0.00 0.00
2:53 am 02:53 Clear 25 -3.9 17 -8.3 71 71 ESE 8 13 30.32 1027 10 16 0.00 0.00
3:53 am 03:53 Clear 24 -4.4 17 -8.3 74 74 SE 6 9 30.32 1027 10 16 0.00 0.00
4:53 am 04:53 Clear 24 -4.4 17 -8.3 74 74 SE 8 13 30.32 1027 10 16 0.00 0.00
5:53 am 05:53 Clear 23 -5 18 -7.8 81 81 SE 8 13 30.32 1027 10 16 0.00 0.00
6:53 am 06:53 Mostly Clear 23 -5 18 -7.8 81 81 SE 9 15 30.31 1027 10 16 0.00 0.00
7:53 am 07:53 Mostly Sunny 24 -4.4 18 -7.8 77 77 SSE 10 17 30.32 1027 10 16 0.00 0.00
8:53 am 08:53 Mostly Sunny 29 -1.7 20 -6.7 69 69 SSE 14 22 30.32 1027 10 16 0.00 0.00
9:53 am 09:53 Sunny 33 0.6 21 -6.1 61 61 SE 16 26 30.30 1026 10 16 0.00 0.00
10:53 am 10:53 Sunny 37 2.8 21 -6.1 52 52 SSE 17 28 30.28 1025 10 16 0.00 0.00
11:53 am 11:53 Sunny 42 5.6 22 -5.6 44 44 SSE 15 24 30.23 1024 10 16 0.00 0.00
12:53 pm 12:53 Mostly Sunny 45 7.2 23 -5 41 41 SSE 20 31 30.16 1022 10 16 0.00 0.00
1:53 pm 13:53 Mostly Sunny 48 8.9 23 -5 37 37 S 20 31 30.12 1020 10 16 0.00 0.00
2:53 pm 14:53 Mostly Sunny 49 9.4 23 -5 36 36 SSE 21 33 30.09 1019 10 16 0.00 0.00
3:53 pm 15:53 Partly Cloudy 49 9.4 24 -4.4 37 37 SSE 21 33 30.07 1018 10 16 0.00 0.00
4:53 pm 16:53 Mostly Sunny 47 8.3 24 -4.4 40 40 SSE 15 24 30.06 1018 10 16 0.00 0.00
5:53 pm 17:53 Mostly Clear 44 6.7 23 -5 43 43 SE 15 24 30.06 1018 10 16 0.00 0.00
6:53 pm 18:53 Clear 42 5.6 24 -4.4 48 48 SE 14 22 30.08 1019 10 16 0.00 0.00
7:53 pm 19:53 Clear 40 4.4 24 -4.4 53 53 SE 15 24 30.08 1019 10 16 0.00 0.00
8:53 pm 20:53 Clear 39 3.9 24 -4.4 55 55 SE 13 20 30.09 1019 10 16 0.00 0.00
9:53 pm 21:53 Clear 37 2.8 24 -4.4 59 59 SSE 12 19 30.10 1019 10 16 0.00 0.00
10:53 pm 22:53 Clear 36 2.2 25 -3.9 64 64 SSE 9 15 30.10 1019 10 16 0.00 0.00
11:53 pm 23:53 Mostly Clear 38 3.3 25 -3.9 59 59 SSE 12 19 30.09 1019 10 16 0.00 0.00

Powered by AerisWeather